[[{"header":{"parameterUnit":"m.s-1","parameterCategory":1,"la1":30.2991,"la2":30.254,"lo1":-89.0895,"lo2":-89.0444,"dy":0.0017,"dx":0.0017,"nx":28,"ny":28,"refTime":"2025-07-09T21:00:00:Z","depth":0,"parameterNumber":2,"parameterNumberName":"U-component_of_WINDS"},"data":[0,0,0,0,0,0,0,0,0,0,0,0,0,0,0,0,0,0,0,0,0,0,0,0,0,0,0,0,0,0,0,0,0,0,0,0,0,0,0,0,0,0,0,0,0,0,0,0,0,0,0,0,0,0,0,0,0,0,2.7432,2.7432,0,2.7414,2.7414,2.7414,2.7346,2.7345,2.7343,2.7342,2.7331,2.7332,2.7334,0,0,0,0,0,0,0,0,0,0,0,0,0,2.7411,2.7412,2.7432,2.7432,2.7431,2.7414,2.7414,2.7414,2.7347,2.7345,2.7343,2.7341,2.7331,2.7332,2.7334,0,0,0,0,0,0,0,0,0,0,0,0,0,2.741,2.7412,2.7432,2.7395,2.7392,2.7414,2.7414,2.7414,2.7347,2.7345,2.7342,2.734,2.733,2.7332,2.7334,2.7392,0,0,2.7339,2.734,0,0,0,0,0,0,0,0,2.741,2.7411,2.7401,2.7398,2.7394,2.738,2.7403,2.7407,2.7348,2.7364,2.7342,2.7339,2.735,2.735,2.7352,2.7392,2.7391,2.7339,2.7341,2.7341,2.7342,0,0,0,0,0,0,0,2.741,2.7411,2.7425,2.7401,2.7397,2.7382,2.7379,2.7403,2.7371,2.7363,2.7358,2.7356,2.7348,2.735,2.7351,2.7391,2.7339,2.7341,2.7342,2.7343,2.7477,2.7479,0,0,0,0,0,0,2.7415,2.7412,2.7426,2.7425,2.7396,2.7384,2.7381,2.7387,2.737,2.7365,2.7358,2.7353,2.7349,2.7349,2.7351,2.7418,2.7341,2.7343,2.7344,2.7474,2.7477,2.748,0,0,0,0,0,0,2.7415,2.7417,2.7426,2.7417,2.7417,2.7387,2.7394,2.7388,2.7391,2.7367,2.7361,2.7367,2.7347,2.7348,2.7382,2.7416,2.7344,2.7345,2.7471,2.7475,2.7479,2.7553,0,0,0,0,0,0,2.7414,2.7417,2.7438,2.7418,2.7417,2.7456,2.7396,2.7389,2.7393,2.7386,2.7374,2.7369,2.7345,2.7379,2.7383,2.7418,2.7347,2.7468,2.7473,2.7477,2.7547,2.7558,2.7568,0,0,0,0,0,2.7414,2.7461,2.7439,2.7441,2.7443,2.7459,2.7459,2.7428,2.7396,2.7418,2.7402,2.737,2.7411,2.7383,2.7387,2.7423,2.7466,2.7472,2.7477,2.7542,2.7556,2.7568,0,0,0,0,0,0,2.749,2.7458,2.7434,2.7475,2.747,2.7447,2.7473,2.7444,2.7449,2.7443,2.7406,2.7404,2.7443,2.7436,2.7405,2.7477,2.7433,2.744,2.7481,2.7494,2.7505,2.7507,2.7348,0,0,0,0,0,2.7511,2.7524,2.7497,2.7536,2.7534,2.7504,2.751,2.7486,2.748,2.7478,2.7465,2.7462,2.7474,2.7483,2.7493,2.7544,2.7541,2.7571,2.7581,2.759,2.7597,2.7623,2.7636,2.7498,2.7498,2.7498,0,0,2.7556,2.754,2.7552,2.7551,2.7544,2.756,2.7503,2.7523,2.7536,2.7482,2.7512,2.7502,2.7496,2.7539,2.7557,2.7534,2.7634,2.7597,2.7604,2.7607,2.763,2.7644,2.7655,2.7502,2.7501,2.7501,0,0,2.7646,2.7635,2.7667,2.766,2.7648,2.7627,2.7635,2.7616,2.7606,2.7635,2.7595,2.761,2.7631,2.7629,2.763,2.7716,2.7687,2.772,2.7777,2.7803,2.7814,2.7823,2.7855,2.7867,2.7727,2.7727,2.7727,0,2.7705,2.7726,2.7687,2.7709,2.7711,2.7659,2.7691,2.7687,2.7681,2.7684,2.7657,2.7682,2.7675,2.7716,2.7736,2.7739,2.7747,2.7723,2.7815,2.7824,2.7832,2.7862,2.7874,2.7731,2.7731,2.773,2.773,0,2.7798,2.7813,2.7841,2.7832,2.7836,2.7864,2.7831,2.784,2.7814,2.7797,2.7827,2.7815,2.7821,2.7829,2.7806,2.7866,2.7852,2.7821,2.7776,2.785,2.7878,2.7889,2.7737,2.7736,2.7735,2.7733,0,0,2.794,2.7907,2.7918,2.7913,2.7895,2.7908,2.7932,2.7935,2.7944,2.794,2.7961,2.7979,2.7949,2.7951,2.7927,2.7949,2.8018,2.7915,2.7914,2.7936,2.8085,2.811,2.8124,2.7997,2.7999,2.8001,2.8086,0,2.8027,2.8066,2.8031,2.8077,2.8091,2.804,2.8062,2.8054,2.8037,2.8048,2.803,2.8043,2.8002,2.8003,2.8022,2.8006,2.8048,2.7999,2.8019,2.802,2.8024,2.8138,2.8166,2.8246,2.8096,2.8098,2.8099,0,2.8136,2.8134,2.8181,2.8158,2.8162,2.8182,2.8181,2.8191,2.8181,2.8167,2.8167,2.8136,2.816,2.8113,2.8146,2.8113,2.8119,2.8111,2.8114,2.8117,2.8066,2.8146,2.8271,2.8284,2.8116,2.8114,2.8113,0,2.8236,2.8245,2.8274,2.8271,2.8245,2.826,2.825,2.8237,2.8241,2.8241,2.8243,2.8246,2.8249,2.8253,2.8223,2.8192,2.826,2.8211,2.8251,2.8252,2.8271,2.8271,2.8401,2.8271,2.8271,2.827,2.827,0,2.8339,2.837,2.8319,2.8337,2.837,2.8329,2.8364,2.8349,2.8337,2.8352,2.8308,2.8324,2.8283,2.8295,2.8273,2.8304,2.8305,2.8296,2.829,2.8301,2.8302,2.8306,2.8301,2.8274,2.8273,2.8272,2.8272,0,2.8459,2.8425,2.8454,2.8424,2.8418,2.8444,2.842,2.8436,2.8415,2.8435,2.8437,2.8405,2.8416,2.8386,2.8394,2.8378,2.8423,2.8407,2.8426,2.8422,2.8464,2.8461,2.8604,2.862,2.8478,2.8479,2.848,0,2.8528,2.855,2.8522,2.8528,2.8519,2.853,2.8532,2.8491,2.8496,2.8484,2.8502,2.8509,2.8512,2.8533,2.8511,2.8517,2.8502,2.8551,2.8503,2.8513,2.8504,2.8504,2.8507,2.8562,2.8564,2.8565,2.8567,0,2.8655,2.8636,2.864,2.8637,2.864,2.8637,2.8631,2.8639,2.8595,2.8603,2.8612,2.8615,2.862,2.8628,2.8628,2.8619,2.8587,2.8581,2.8591,2.8604,2.8615,2.8611,2.8456,2.8579,2.8578,2.8577,2.8576,2.8576,2.8752,2.8769,2.8752,2.8757,2.8747,2.8742,2.8755,2.8733,2.874,2.8739,2.8715,2.8729,2.8717,2.8712,2.8707,2.8718,2.8696,2.871,2.8714,2.8719,2.8726,2.861,2.8718,2.8718,2.8717,2.8717,2.8717,0,2.8878,2.8863,2.8868,2.8859,2.8863,2.8827,2.8818,2.8825,2.8837,2.8827,2.883,2.884,2.8847,2.8824,2.8827,2.8841,2.8826,2.8843,2.8843,2.8842,2.8745,2.8737,2.8855,2.8855,2.8855,2.8855,2.8855,2.8855,2.8944,2.8971,2.895,2.8971,2.8956,2.8968,2.8965,2.896,2.8952,2.8964,2.8968,2.8951,2.8936,2.8938,2.8942,2.8935,2.894,2.8963,2.8951,2.8862,2.8849,2.8836,2.8828,2.8963,2.8964,2.9047,2.9047,2.9048]},{"header":{"parameterUnit":"m.s-1","parameterCategory":1,"la1":30.2991,"la2":30.254,"lo1":-89.0895,"lo2":-89.0444,"dy":0.0017,"dx":0.0017,"nx":28,"ny":28,"refTime":"2025-07-09T21:00:00:Z","depth":0,"parameterNumber":3,"parameterNumberName":"V-component_of_WINDS"},"data":[0,0,0,0,0,0,0,0,0,0,0,0,0,0,0,0,0,0,0,0,0,0,0,0,0,0,0,0,0,0,0,0,0,0,0,0,0,0,0,0,0,0,0,0,0,0,0,0,0,0,0,0,0,0,0,0,0,0,2.5612,2.5612,0,2.562,2.562,2.562,2.5621,2.5621,2.5621,2.5621,2.5628,2.5628,2.5628,0,0,0,0,0,0,0,0,0,0,0,0,0,2.5595,2.5595,2.5612,2.5612,2.5612,2.562,2.562,2.562,2.5621,2.5621,2.5621,2.5621,2.5628,2.5628,2.5628,0,0,0,0,0,0,0,0,0,0,0,0,0,2.5602,2.5595,2.5612,2.5614,2.5614,2.562,2.562,2.562,2.5621,2.5621,2.5621,2.5621,2.5628,2.5628,2.5628,2.5633,0,0,2.5629,2.563,0,0,0,0,0,0,0,0,2.5602,2.5603,2.5613,2.5613,2.5614,2.562,2.5617,2.5624,2.5621,2.5618,2.5621,2.5621,2.5625,2.5626,2.5627,2.5633,2.5634,2.5629,2.563,2.563,2.563,0,0,0,0,0,0,0,2.5601,2.5603,2.5615,2.5613,2.5614,2.5613,2.5614,2.5618,2.5622,2.5619,2.5619,2.562,2.5625,2.5627,2.5627,2.5634,2.5629,2.563,2.563,2.563,2.5642,2.5642,0,0,0,0,0,0,2.5601,2.5602,2.5615,2.5615,2.5608,2.5613,2.5615,2.5618,2.5622,2.5623,2.562,2.562,2.5626,2.5627,2.5628,2.5633,2.563,2.563,2.563,2.5642,2.5642,2.5642,0,0,0,0,0,0,2.5601,2.5602,2.5615,2.5609,2.561,2.5614,2.5617,2.5618,2.562,2.5623,2.5624,2.5621,2.5626,2.5627,2.5631,2.5633,2.563,2.5631,2.5642,2.5642,2.5642,2.5643,0,0,0,0,0,0,2.56,2.5602,2.5605,2.5609,2.5611,2.5619,2.5618,2.5618,2.5621,2.5621,2.5624,2.5625,2.5626,2.5631,2.5632,2.5633,2.5631,2.5642,2.5642,2.5642,2.5643,2.5643,2.5643,0,0,0,0,0,2.5599,2.5604,2.5605,2.5606,2.5614,2.5619,2.562,2.5622,2.5621,2.5623,2.5625,2.5625,2.5633,2.5631,2.5632,2.5634,2.5642,2.5642,2.5642,2.5643,2.5643,2.5643,0,0,0,0,0,0,2.56,2.5605,2.5605,2.5612,2.5615,2.5619,2.5622,2.5622,2.5625,2.5625,2.5627,2.5628,2.5632,2.5633,2.5632,2.5638,2.5637,2.5637,2.5637,2.5637,2.5638,2.5637,2.5631,0,0,0,0,0,2.5601,2.5605,2.5609,2.5614,2.5616,2.5619,2.5621,2.5622,2.5625,2.5626,2.5628,2.5631,2.5634,2.5636,2.5638,2.5643,2.5643,2.5644,2.5645,2.5645,2.5645,2.5646,2.5647,2.5643,2.5643,2.5643,0,0,2.5603,2.5606,2.5609,2.5614,2.5617,2.562,2.562,2.5624,2.5626,2.5627,2.5631,2.5632,2.5635,2.5639,2.5641,2.564,2.5646,2.5645,2.5645,2.5646,2.5647,2.5647,2.5647,2.5643,2.5643,2.5643,0,0,2.5608,2.5611,2.5615,2.5618,2.5621,2.5623,2.5624,2.5628,2.5629,2.5633,2.5633,2.5635,2.564,2.5642,2.5644,2.5647,2.5647,2.5648,2.565,2.5651,2.5651,2.5651,2.5652,2.5652,2.5649,2.5649,2.5649,0,2.5609,2.5615,2.5617,2.5621,2.5623,2.5624,2.5627,2.5629,2.5634,2.5635,2.5634,2.564,2.5642,2.5646,2.5647,2.5648,2.5648,2.5648,2.5651,2.5651,2.5652,2.5652,2.5652,2.5649,2.5649,2.5649,2.5649,0,2.5617,2.5621,2.5623,2.5628,2.563,2.5634,2.5635,2.5637,2.5638,2.5639,2.5642,2.5644,2.5647,2.5648,2.5649,2.5652,2.5651,2.5651,2.565,2.5652,2.5652,2.5653,2.5649,2.5649,2.5649,2.5649,0,0,2.5623,2.5627,2.5628,2.563,2.5633,2.5636,2.5639,2.5642,2.5643,2.5645,2.5647,2.5651,2.565,2.5652,2.5653,2.5654,2.5655,2.5653,2.5653,2.5653,2.5658,2.5658,2.5658,2.5655,2.5655,2.5655,2.5657,0,2.5628,2.5634,2.5635,2.564,2.5643,2.5643,2.5645,2.5647,2.5648,2.565,2.5651,2.5653,2.5652,2.5653,2.5654,2.5655,2.5656,2.5655,2.5656,2.5657,2.5656,2.5659,2.5659,2.5661,2.5658,2.5658,2.5658,0,2.5635,2.5637,2.5642,2.5644,2.5646,2.5648,2.565,2.5652,2.5654,2.5654,2.5655,2.5655,2.5657,2.5656,2.5659,2.5658,2.5658,2.5658,2.5658,2.5659,2.5657,2.5658,2.5661,2.5662,2.5658,2.5658,2.5658,0,2.5638,2.5642,2.5646,2.5647,2.565,2.5651,2.5652,2.5654,2.5655,2.5656,2.5657,2.5659,2.5659,2.566,2.566,2.566,2.5662,2.5661,2.5662,2.5662,2.5663,2.5663,2.5666,2.5664,2.5664,2.5664,2.5664,0,2.5643,2.5646,2.5647,2.5649,2.5652,2.5653,2.5655,2.5656,2.5657,2.5659,2.5659,2.566,2.566,2.5661,2.5662,2.5663,2.5663,2.5663,2.5663,2.5663,2.5663,2.5663,2.5663,2.5664,2.5664,2.5664,2.5664,0,2.5647,2.5648,2.5652,2.5653,2.5654,2.5656,2.5657,2.5658,2.5659,2.5661,2.5661,2.5662,2.5663,2.5663,2.5665,2.5665,2.5666,2.5666,2.5666,2.5665,2.5666,2.5666,2.5669,2.5669,2.5667,2.5667,2.5667,0,2.565,2.5652,2.5654,2.5655,2.5656,2.5658,2.5659,2.566,2.5661,2.5662,2.5663,2.5664,2.5665,2.5667,2.5667,2.5668,2.5667,2.5668,2.5668,2.5667,2.5667,2.5667,2.5666,2.5669,2.5669,2.5669,2.5669,0,2.5655,2.5655,2.5657,2.5659,2.566,2.5661,2.5662,2.5663,2.5664,2.5665,2.5666,2.5667,2.5668,2.5668,2.5669,2.5669,2.5669,2.5669,2.5669,2.5669,2.5668,2.5668,2.5666,2.5669,2.5669,2.5669,2.5669,2.5669,2.5658,2.566,2.5661,2.5663,2.5664,2.5664,2.5666,2.5666,2.5667,2.5668,2.5668,2.5669,2.567,2.567,2.567,2.5671,2.567,2.5671,2.5671,2.5671,2.5671,2.5668,2.5671,2.5671,2.5671,2.5671,2.5671,0,2.5663,2.5663,2.5665,2.5666,2.5667,2.5667,2.5668,2.5668,2.567,2.567,2.5671,2.5672,2.5672,2.5672,2.5672,2.5673,2.5672,2.5673,2.5673,2.5672,2.5671,2.5671,2.5673,2.5673,2.5673,2.5673,2.5673,2.5673,2.5665,2.5667,2.5667,2.567,2.567,2.5671,2.5672,2.5672,2.5672,2.5673,2.5674,2.5674,2.5674,2.5674,2.5674,2.5674,2.5674,2.5674,2.5674,2.5673,2.5673,2.5673,2.5672,2.5674,2.5674,2.5675,2.5675,2.5675]}]]